EN

Hourly Weather Ali Bayramli

Today, 27 January, Wednesday

Time Temperature Precipitation Wind Pressure Humidity
00:00 +4°C° 0 mm 1 mps 763 mmHg 69%
01:00 +3°C° 0 mm 0 mps 763 mmHg 73%
02:00 +3°C° 0 mm 0 mps 763 mmHg 78%
03:00 +2°C° 0 mm 0 mps 763 mmHg 80%
04:00 +2°C° 0 mm 0 mps 762 mmHg 83%
05:00 +2°C° 0 mm 0 mps 762 mmHg 85%
06:00 +2°C° 0 mm 0 mps 762 mmHg 87%
07:00 +4°C° 0 mm 0 mps 762 mmHg 84%
08:00 +5°C° 0 mm 0 mps 762 mmHg 80%
09:00 +8°C° 0 mm 1 mps 762 mmHg 77%
10:00 +9°C° 0 mm 1 mps 762 mmHg 72%
11:00 +10°C° 0 mm 1 mps 761 mmHg 67%
12:00 +11°C° 0 mm 1 mps 761 mmHg 63%
13:00 +12°C° 0 mm 2 mps 760 mmHg 59%
14:00 +12°C° 0 mm 2 mps 760 mmHg 55%
15:00 +13°C° 0 mm 2 mps 759 mmHg 51%
16:00 +10°C° 0 mm 2 mps 759 mmHg 57%
17:00 +9°C° 0 mm 2 mps 759 mmHg 64%
18:00 +9°C° 0 mm 1 mps 759 mmHg 70%
19:00 +7°C° 0 mm 2 mps 759 mmHg 74%
20:00 +7°C° 0 mm 2 mps 759 mmHg 79%
21:00 +7°C° 0 mm 2 mps 758 mmHg 83%
22:00 +6°C° 0 mm 2 mps 758 mmHg 85%
23:00 +7°C° 0 mm 1 mps 758 mmHg 87%

Tomorrow, 28 January, Thursday

Time Temperature Precipitation Wind Pressure Humidity
00:00 +6°C° 0 mm 1 mps 758 mmHg 88%
01:00 +6°C° 0 mm 1 mps 757 mmHg 89%
02:00 +6°C° 0 mm 1 mps 756 mmHg 89%
03:00 +5°C° 0 mm 1 mps 756 mmHg 89%
04:00 +5°C° 0 mm 1 mps 756 mmHg 88%
05:00 +5°C° 0 mm 1 mps 755 mmHg 87%
06:00 +5°C° 0 mm 1 mps 755 mmHg 85%
07:00 +6°C° 0 mm 1 mps 755 mmHg 78%
08:00 +7°C° 0 mm 1 mps 755 mmHg 71%
09:00 +7°C° 0 mm 2 mps 755 mmHg 63%
10:00 +9°C° 0 mm 2 mps 755 mmHg 57%
11:00 +10°C° 0 mm 2 mps 754 mmHg 51%
12:00 +12°C° 0 mm 2 mps 754 mmHg 45%
13:00 +12°C° 0 mm 2 mps 754 mmHg 44%
14:00 +11°C° 0 mm 3 mps 753 mmHg 44%
15:00 +11°C° 0 mm 3 mps 753 mmHg 43%
16:00 +11°C° 0 mm 3 mps 753 mmHg 46%
17:00 +10°C° 0 mm 3 mps 753 mmHg 50%
18:00 +9°C° 0 mm 3 mps 753 mmHg 53%
19:00 +9°C° 0 mm 3 mps 753 mmHg 55%
20:00 +8°C° 0 mm 3 mps 753 mmHg 56%
21:00 +8°C° 0 mm 3 mps 753 mmHg 58%
22:00 +7°C° 0 mm 3 mps 753 mmHg 58%
23:00 +7°C° 0 mm 2 mps 754 mmHg 58%

Day after tomorrow, 29 January, Friday

Time Temperature Precipitation Wind Pressure Humidity
00:00 +7°C° 0 mm 2 mps 754 mmHg 58%
01:00 +7°C° 0 mm 2 mps 754 mmHg 57%
02:00 +7°C° 0 mm 3 mps 754 mmHg 56%
03:00 +7°C° 0 mm 3 mps 755 mmHg 55%
04:00 +6°C° 0 mm 4 mps 755 mmHg 60%
05:00 +6°C° 0 mm 4 mps 755 mmHg 65%
06:00 +6°C° 0 mm 5 mps 756 mmHg 70%
07:00 +6°C° 0 mm 5 mps 756 mmHg 70%
08:00 +7°C° 0 mm 5 mps 757 mmHg 69%
09:00 +8°C° 0 mm 4 mps 757 mmHg 68%
10:00 +8°C° 0 mm 4 mps 757 mmHg 64%
11:00 +10°C° 0 mm 3 mps 757 mmHg 61%
12:00 +11°C° 0 mm 3 mps 757 mmHg 57%
13:00 +11°C° 0 mm 3 mps 757 mmHg 58%
14:00 +11°C° 0 mm 3 mps 756 mmHg 58%
15:00 +11°C° 0 mm 3 mps 756 mmHg 58%
16:00 +10°C° 0 mm 3 mps 757 mmHg 64%
17:00 +9°C° 0 mm 2 mps 757 mmHg 70%
18:00 +8°C° 0 mm 2 mps 757 mmHg 76%
19:00 +7°C° 0 mm 2 mps 757 mmHg 79%
20:00 +7°C° 0 mm 3 mps 758 mmHg 82%
21:00 +5°C° 0 mm 3 mps 758 mmHg 84%
22:00 +5°C° 0 mm 3 mps 758 mmHg 86%
23:00 +5°C° 0 mm 3 mps 758 mmHg 87%

30 January, Saturday

Time Temperature Precipitation Wind Pressure Humidity
00:00 +5°C° 0 mm 2 mps 758 mmHg 89%
01:00 +5°C° 0 mm 2 mps 758 mmHg 89%
02:00 +5°C° 0 mm 2 mps 758 mmHg 90%
03:00 +6°C° 0 mm 1 mps 758 mmHg 90%
04:00 +6°C° 0 mm 1 mps 758 mmHg 89%
05:00 +6°C° 0 mm 1 mps 758 mmHg 88%
06:00 +6°C° 0 mm 1 mps 758 mmHg 87%
07:00 +7°C° 0 mm 1 mps 758 mmHg 85%
08:00 +7°C° 0 mm 1 mps 758 mmHg 83%
09:00 +7°C° 0 mm 1 mps 759 mmHg 81%
10:00 +7°C° 0 mm 2 mps 758 mmHg 78%
11:00 +8°C° 0 mm 2 mps 758 mmHg 76%
12:00 +8°C° 0 mm 2 mps 758 mmHg 73%
13:00 +9°C° 0 mm 2 mps 757 mmHg 71%
14:00 +9°C° 0 mm 2 mps 757 mmHg 70%
15:00 +9°C° 0 mm 2 mps 757 mmHg 69%
16:00 +9°C° 0 mm 2 mps 757 mmHg 72%
17:00 +8°C° 0 mm 2 mps 757 mmHg 76%
18:00 +7°C° 0 mm 2 mps 757 mmHg 80%
19:00 +7°C° 0 mm 2 mps 757 mmHg 81%
20:00 +7°C° 0 mm 2 mps 757 mmHg 83%
21:00 +6°C° 0 mm 2 mps 757 mmHg 84%
22:00 +6°C° 0 mm 2 mps 757 mmHg 86%
23:00 +5°C° 0 mm 2 mps 757 mmHg 88%

31 January, Sunday

Time Temperature Precipitation Wind Pressure Humidity
00:00 +5°C° 0 mm 2 mps 756 mmHg 90%
01:00 +5°C° 0 mm 2 mps 756 mmHg 91%
02:00 +5°C° 0 mm 2 mps 755 mmHg 92%
03:00 +4°C° 0 mm 2 mps 755 mmHg 93%
04:00 +4°C° 0 mm 2 mps 754 mmHg 93%
05:00 +3°C° 0 mm 3 mps 754 mmHg 92%
06:00 +3°C° 0 mm 3 mps 754 mmHg 92%
07:00 +4°C° 0 mm 3 mps 754 mmHg 89%
08:00 +5°C° 0 mm 4 mps 754 mmHg 85%
09:00 +5°C° 0 mm 4 mps 754 mmHg 82%
10:00 +7°C° 0 mm 5 mps 754 mmHg 74%
11:00 +9°C° 0 mm 6 mps 754 mmHg 66%
12:00 +10°C° 0 mm 7 mps 754 mmHg 59%
13:00 +11°C° 0 mm 7 mps 754 mmHg 52%
14:00 +12°C° 0 mm 7 mps 754 mmHg 46%
15:00 +14°C° 0 mm 7 mps 754 mmHg 39%
16:00 +12°C° 0 mm 7 mps 754 mmHg 40%
17:00 +12°C° 0 mm 7 mps 755 mmHg 42%
18:00 +11°C° 0 mm 6 mps 755 mmHg 43%
19:00 +10°C° 0 mm 5 mps 756 mmHg 45%
20:00 +10°C° 0 mm 4 mps 757 mmHg 47%
21:00 +10°C° 0 mm 3 mps 757 mmHg 49%
22:00 +9°C° 0 mm 3 mps 758 mmHg 54%
23:00 +8°C° 0 mm 2 mps 759 mmHg 59%

1 February, Monday

Time Temperature Precipitation Wind Pressure Humidity
00:00 +8°C° 0 mm 1 mps 759 mmHg 63%
01:00 +7°C° 0 mm 2 mps 760 mmHg 69%
02:00 +6°C° 0 mm 2 mps 760 mmHg 75%
03:00 +6°C° 0 mm 2 mps 760 mmHg 81%
04:00 +6°C° 0 mm 2 mps 760 mmHg 83%
05:00 +5°C° 0 mm 2 mps 761 mmHg 85%
06:00 +5°C° 0 mm 2 mps 761 mmHg 87%
07:00 +6°C° 0 mm 2 mps 761 mmHg 83%
08:00 +7°C° 0 mm 2 mps 762 mmHg 78%
09:00 +8°C° 0 mm 2 mps 762 mmHg 74%
10:00 +10°C° 0 mm 2 mps 762 mmHg 67%
11:00 +12°C° 0 mm 2 mps 762 mmHg 61%
12:00 +12°C° 0 mm 3 mps 762 mmHg 54%
13:00 +13°C° 0 mm 3 mps 761 mmHg 49%
14:00 +14°C° 0 mm 3 mps 761 mmHg 45%
15:00 +15°C° 0 mm 4 mps 761 mmHg 40%
16:00 +13°C° 0 mm 3 mps 761 mmHg 46%
17:00 +12°C° 0 mm 3 mps 761 mmHg 52%
18:00 +12°C° 0 mm 2 mps 761 mmHg 58%
19:00 +10°C° 0 mm 3 mps 761 mmHg 64%
20:00 +9°C° 0 mm 3 mps 762 mmHg 69%
21:00 +9°C° 0 mm 3 mps 762 mmHg 75%
22:00 +9°C° 0 mm 3 mps 762 mmHg 78%
23:00 +8°C° 0 mm 3 mps 762 mmHg 80%
Show more